Weather History for Hurlburt Field, FL

Change the Weather History Date:

Saturday, December 29, 2012

  Actual Average Record
Temperature  
Mean Temperature 50 °F -  
Max Temperature 64 °F 58 °F 71 °F (2006)
Min Temperature 36 °F 40 °F 28 °F (2010)
Degree Days  
Heating Degree Days 14    
Moisture  
Dew Point 48 °F    
Average Humidity 88    
Maximum Humidity 100    
Minimum Humidity 63    
Precipitation  
Precipitation 0.00 in - - ()
Sea Level Pressure  
Sea Level Pressure 30.02 in    
Wind  
Wind Speed 12 mph (NW)    
Max Wind Speed 22 mph    
Max Gust Speed 29 mph    
Visibility 10 miles    
Events Rain    
Averages and records for this station are not official NWS values.
T = Trace of Precipitation, MM = Missing Value Source: NWS Daily Summary

Daily Weather History Graph

Daily Weather History Graph

Search for Another Location

Airport:

Trip Planner

Search our weather history database for the weather conditions in past years. The results will help you decide how hot, cold, wet, or windy it might be!

Date:

Astronomy

Dec. 29, 2012 Rise Set
Actual Time 6:42 AM CST 4:55 PM CST
Civil Twilight 6:16 AM CST 5:21 PM CST
Nautical Twilight 5:46 AM CST 5:51 PM CST
Astronomical Twilight 5:17 AM CST 6:21 PM CST
Moon 6:20 PM CST (12/29) 7:22 AM CST (12/29)
Length of Visible Light 11h 05m
Length of Day
10h 12m
Full, 98% of the Moon is Illuminated
Dec 29
Full
Jan 4
Last Quarter
Jan 11
New
Jan 18
First Quarter
Jan 26
Full

Hourly Weather History & Observations

Time (CST) Temp. Windchill Dew Point Humidity Pressure Visibility Wind Dir Wind Speed Gust Speed Precip Events Conditions
12:38 AM 64.4 °F - 64.4 °F 100% 29.77 in 10.0 mi WNW 8.1 mph - N/A   Overcast
12:44 AM 64.4 °F - 64.4 °F 100% 29.78 in 10.0 mi WNW 9.2 mph - N/A   Overcast
12:51 AM 64.4 °F - 64.4 °F 100% 29.78 in 10.0 mi West 8.1 mph - N/A   Overcast
12:55 AM 64.8 °F - 64.8 °F 100% 29.78 in 10.0 mi WNW 6.9 mph - N/A   Overcast
1:10 AM 64.4 °F - 64.4 °F 100% 29.80 in 10.0 mi West 11.5 mph - N/A   Overcast
1:55 AM 63.3 °F - 63.3 °F 100% 29.81 in 10.0 mi NW 13.8 mph - N/A   Mostly Cloudy
1:59 AM 62.6 °F - 62.6 °F 100% 29.82 in 10.0 mi NW 11.5 mph 20.7 mph N/A   Overcast
2:30 AM 59.0 °F - 59.0 °F 100% 29.84 in 10.0 mi NW 13.8 mph 21.9 mph N/A   Overcast
2:31 AM 59.0 °F - 59.0 °F 100% 29.84 in 10.0 mi NW 13.8 mph 20.7 mph N/A   Light Drizzle
2:49 AM 57.2 °F - 57.2 °F 100% 29.86 in 10.0 mi NW 15.0 mph 27.6 mph N/A   Overcast
2:55 AM 55.9 °F - 55.9 °F 100% 29.86 in 10.0 mi NW 16.1 mph 26.5 mph 0.00 in   Overcast
2:59 AM 55.4 °F - 55.4 °F 100% 29.87 in 10.0 mi NW 18.4 mph 26.5 mph N/A   Overcast
3:09 AM 55.4 °F - 55.4 °F 100% 29.87 in 10.0 mi NW 21.9 mph 28.8 mph N/A   Light Drizzle
3:20 AM 55.4 °F - 55.4 °F 100% 29.87 in 10.0 mi NW 12.7 mph 20.7 mph N/A   Overcast
3:39 AM 53.6 °F - 53.6 °F 100% 29.88 in 10.0 mi NNW 15.0 mph 20.7 mph N/A Rain Light Rain
3:48 AM 53.6 °F - 53.6 °F 100% 29.89 in 10.0 mi NW 13.8 mph 24.2 mph N/A   Overcast
3:55 AM 54.0 °F - 54.0 °F 100% 29.89 in 10.0 mi NW 12.7 mph 20.7 mph 0.00 in   Overcast
4:16 AM 53.6 °F - 53.6 °F 100% 29.91 in 10.0 mi NW 12.7 mph - N/A   Overcast
4:55 AM 50.4 °F - 48.0 °F 92% 29.94 in 10.0 mi NW 12.7 mph 20.7 mph N/A   Overcast
5:55 AM 48.9 °F - 46.4 °F 91% 29.99 in 10.0 mi NNW 13.8 mph 20.7 mph N/A   Overcast
6:55 AM 47.7 °F - 45.1 °F 91% 30.03 in 10.0 mi NW 11.5 mph - N/A   Overcast
7:55 AM 46.8 °F - 43.2 °F 87% 30.06 in 10.0 mi NW 17.3 mph 23.0 mph N/A   Overcast
8:55 AM 46.4 °F 39.5 °F 42.3 °F 85% 30.10 in 10.0 mi NW 17.3 mph 23.0 mph N/A   Overcast
9:55 AM 46.4 °F 39.5 °F 41.2 °F 82% 30.13 in 10.0 mi North 17.3 mph 26.5 mph N/A   Overcast
10:55 AM 47.8 °F - 40.6 °F 76% 30.12 in 10.0 mi NNW 17.3 mph 25.3 mph N/A   Mostly Cloudy
11:55 AM 46.8 °F - 40.3 °F 78% 30.13 in 10.0 mi NNW 18.4 mph 24.2 mph N/A   Overcast
12:37 PM 48.2 °F - 41.0 °F 76% 30.11 in 10.0 mi NNW 16.1 mph 24.2 mph N/A   Scattered Clouds
12:55 PM 47.8 °F - 39.6 °F 73% 30.12 in 10.0 mi NW 10.4 mph - N/A   Partly Cloudy
1:55 PM 48.2 °F - 38.5 °F 69% 30.12 in 10.0 mi NW 13.8 mph - N/A   Clear
2:55 PM 50.4 °F - 38.3 °F 63% 30.14 in 10.0 mi NNW 11.5 mph - N/A   Clear
3:55 PM 48.9 °F - 37.6 °F 65% 30.17 in 10.0 mi NNW 9.2 mph - N/A   Clear
4:55 PM 46.8 °F - 36.5 °F 67% 30.19 in 10.0 mi NNW 10.4 mph 20.7 mph N/A   Clear
5:55 PM 44.2 °F 39.7 °F 35.2 °F 71% 30.22 in 10.0 mi NNW 8.1 mph - N/A   Clear
6:55 PM 41.9 °F 36.3 °F 34.5 °F 75% 30.25 in 10.0 mi NNW 9.2 mph - N/A   Clear
7:55 PM 40.1 °F 36.9 °F 33.8 °F 78% 30.29 in 10.0 mi NNW 4.6 mph - N/A   Clear
8:55 PM 39.0 °F 34.0 °F 33.1 °F 79% 30.32 in 10.0 mi NNW 6.9 mph - N/A   Clear
9:55 PM 38.5 °F 34.1 °F 32.0 °F 78% 30.34 in 10.0 mi NW 5.8 mph - N/A   Clear
10:55 PM 37.2 °F 31.2 °F 30.9 °F 78% 30.35 in 10.0 mi NNW 8.1 mph - N/A   Clear
11:55 PM 36.5 °F 31.0 °F 30.4 °F 78% 30.35 in 10.0 mi NNW 6.9 mph - N/A   Clear